Flag for Austria Weather past 2 weeks in Kapfenberg, Styria, Austria

Now
37 °F

Light rain. Partly cloudy.


Feels Like: 34 °F
Forecast: 38 / 47 °F
Wind: 5 mph from Northeast

Location: Zeltweg

Current Time: Oct 23, 2014 at 8:16:57 AM

Latest Report: Oct 23, 2014 at 7:20 AM


Visibility: 6 mi

Pressure: 29.74 "Hg

Humidity: 100%

Dew point: 37 °F

Location of KapfenbergLocation

Historic Weather in Kapfenberg — Graph

°F

Kapfenberg temperature yesterday

Maximum temperature yesterday: 46 °F (at 11:50 AM)
Minimum temperature yesterday: 41 °F (at 5:50 AM)
Average temperature yesterday: 43 °F

Past Weeks' High & Low Weather Summary

 TemperatureHumidityPressure
High73 °F (Oct 9, 1:20 PM)100% (Oct 8, 7:20 AM)30.36 "Hg (Oct 8, 7:20 AM)
Low37 °F (Oct 18, 7:50 AM)40% (Oct 14, 2:20 PM)29.68 "Hg (Oct 21, 10:50 PM)
Average57 °F76%29.96 "Hg
* Reported Oct 8 6:50 AM — Oct 23 6:50 AM, Kapfenberg, Weather by CustomWeather, © 2014

Note: Actual official high and low records may vary slightly from our data, if they occured in-between our weather recording intervals... More about our weather records

Advertising

Kapfenberg weather history for previous 24 hours

 ConditionsComfort  
Time TempWeatherWind HumidityBarometerVisibility
6:50 AM
Oct 23
39 °FLight rain. Overcast.3 mph93%29.71 "Hg9 mi
5:50 AM39 °FLight rain. Partly cloudy.2 mph87%29.74 "Hg6 mi
4:50 AM39 °FLight rain. Partly cloudy.1 mph87%29.74 "Hg6 mi
10:50 PM
Oct 22
41 °FPassing clouds.12 mph76%29.74 "Hg12 mi
9:50 PM41 °FPassing clouds.15 mph70%29.77 "Hg12 mi
8:50 PM41 °FPartly cloudy.12 mph66%29.77 "Hg12 mi
7:50 PM41 °FPassing clouds.13 mph66%29.77 "Hg12 mi
6:50 PM41 °FPartly sunny.10 mph66%29.77 "Hg12 mi
6:20 PM41 °FScattered clouds.18 mph70%29.77 "Hg12 mi
5:50 PM41 °FScattered clouds.18 mph70%29.77 "Hg12 mi
5:20 PM43 °FPartly sunny.15 mph66%29.77 "Hg12 mi
4:50 PM45 °FPartly sunny.15 mph66%29.77 "Hg12 mi
4:20 PM43 °FPartly sunny.17 mph71%29.77 "Hg12 mi
3:50 PM43 °FPartly sunny.20 mph66%29.77 "Hg9 mi
3:20 PM43 °FPartly sunny.20 mph71%29.77 "Hg12 mi
2:50 PM43 °FSprinkles. Partly sunny.18 mph76%29.77 "Hg12 mi
2:20 PM43 °FSprinkles. Partly sunny.18 mph71%29.77 "Hg12 mi
1:50 PM45 °FPartly sunny.21 mph66%29.74 "Hg12 mi
1:20 PM46 °FPartly sunny.20 mph57%29.74 "Hg12 mi
12:50 PM46 °FPartly sunny.15 mph57%29.74 "Hg12 mi
12:20 PM45 °FPartly sunny.17 mph66%29.74 "Hg12 mi
11:50 AM46 °FPartly sunny.17 mph62%29.74 "Hg12 mi
11:20 AM45 °FPartly sunny.20 mph61%29.74 "Hg12 mi
10:50 AM45 °FPartly sunny.14 mph57%29.74 "Hg19 mi
10:20 AM45 °FPartly sunny.10 mph61%29.74 "Hg19 mi
9:50 AM43 °FPartly sunny.14 mph66%29.74 "Hg19 mi
9:20 AM45 °FPartly sunny.12 mph53%29.77 "Hg19 mi
8:50 AM43 °FBroken clouds.6 mph71%29.74 "Hg19 mi
8:20 AM41 °FPartly cloudy.6 mph81%29.74 "Hg19 mi
Weather by CustomWeather, © 2014

See weather overviewHow to use our weather pages